CW8593 Gava ES current weather conditions

sailwx.info

Wind from 097

Air temperature 22.2° C
Dewpoint 16.3° C

Last reported at 2016-Jun-25 22:42 UTC.
Time now 2016-Jun-25 23:13 UTC

Location: N 41°18' E 001°60'.
View on Google Maps.

See reports from other nearby stations

  
Tides and Currents Weather Stations Pressure Air Temp Water Temp Dewpoint Dewpoint Depression Visibility Wind Speed Wind Dir Waves Ship Positions
date/time (UTC)wind fromknots sea level pressurealtimeterstation pressurevisibilityair tempwater tempwave heightnotes
2016-Jun-25 22:42 097 22.2
2016-Jun-25 22:37 097 22.2
2016-Jun-25 22:32 097 0 gusting 1 22.2
2016-Jun-25 22:17 097 22.2
2016-Jun-25 22:12 098 22.2
2016-Jun-25 22:07 097 22.2
2016-Jun-25 21:57 097 22.2
2016-Jun-25 21:42 097 22.2
2016-Jun-25 21:37 097 22.2
2016-Jun-25 21:32 098 22.2
2016-Jun-25 21:22 097 22.2
2016-Jun-25 21:07 098 22.2
2016-Jun-25 20:57 097 22.8
2016-Jun-25 20:52 097 22.8
2016-Jun-25 20:42 097 22.8
2016-Jun-25 20:37 097 22.8
2016-Jun-25 20:32 097 22.8
2016-Jun-25 20:17 097 1 gusting 4 23.3
2016-Jun-25 20:12 097 0 gusting 2 23.3
2016-Jun-25 20:02 097 23.3
2016-Jun-25 19:52 097 23.9
2016-Jun-25 19:47 097 23.9
2016-Jun-25 19:42 097 23.9
2016-Jun-25 19:32 097 0 gusting 2 23.9
2016-Jun-25 19:27 097 0 gusting 2 23.9
2016-Jun-25 19:07 096 0 gusting 4 23.9
2016-Jun-25 19:02 097 2 gusting 5 23.9
2016-Jun-25 18:57 103 2 gusting 6 23.9
2016-Jun-25 18:37 132 5 gusting 6 24.4
2016-Jun-25 18:27 140 3 gusting 6 24.4
2016-Jun-25 18:22 125 2 gusting 6 24.4
2016-Jun-25 18:17 083 4 gusting 7 24.4
2016-Jun-25 18:12 107 5 gusting 7 24.4
2016-Jun-25 17:57 139 4 gusting 8 24.4
2016-Jun-25 17:47 079 4 gusting 7 25.0
2016-Jun-25 17:42 130 2 gusting 7 25.0
2016-Jun-25 17:37 101 4 gusting 6 25.0
2016-Jun-25 17:32 126 3 gusting 8 24.4
2016-Jun-25 17:27 138 3 gusting 8 24.4
2016-Jun-25 17:22 115 3 gusting 10 24.4
2016-Jun-25 17:17 142 5 gusting 10 25.0
2016-Jun-25 17:07 119 6 gusting 10 24.4
2016-Jun-25 17:02 126 5 gusting 7 25.0
2016-Jun-25 16:37 126 6 gusting 8 25.0
2016-Jun-25 16:32 130 4 gusting 7 25.0
2016-Jun-25 16:27 099 4 gusting 7 25.0
2016-Jun-25 16:17 122 4 gusting 7 25.0
2016-Jun-25 16:12 093 2 gusting 7 25.0
2016-Jun-25 16:02 133 4 gusting 6 25.0
2016-Jun-25 15:57 113 3 gusting 8 25.0
2016-Jun-25 15:52 141 4 gusting 10 25.0
2016-Jun-25 15:47 081 4 gusting 11 25.0
2016-Jun-25 15:32 129 4 gusting 10 25.6
2016-Jun-25 15:27 137 5 gusting 7 25.6
2016-Jun-25 15:12 143 6 gusting 8 25.0
2016-Jun-25 14:47 114 6 gusting 10 25.0
2016-Jun-25 14:42 104 2 gusting 11 25.6
2016-Jun-25 14:32 083 4 gusting 10 25.0
2016-Jun-25 14:27 088 6 gusting 11 25.0
2016-Jun-25 14:22 130 7 gusting 11 25.0
2016-Jun-25 14:07 094 6 gusting 12 25.6
2016-Jun-25 13:57 097 5 gusting 12 25.6
2016-Jun-25 13:52 083 6 gusting 12 25.6
2016-Jun-25 13:47 106 7 gusting 11 25.6
2016-Jun-25 13:42 108 7 gusting 10 26.1
2016-Jun-25 13:37 109 5 gusting 12 26.1
2016-Jun-25 13:32 084 5 gusting 8 26.1
2016-Jun-25 13:17 120 7 gusting 11 26.1
2016-Jun-25 13:12 122 2 gusting 8 26.1
2016-Jun-25 13:07 089 4 gusting 8 26.1
2016-Jun-25 13:02 105 5 gusting 7 26.1
2016-Jun-25 12:57 106 4 gusting 7 25.6
2016-Jun-25 12:47 125 4 gusting 10 26.1
2016-Jun-25 12:42 108 6 gusting 10 26.1
2016-Jun-25 12:27 118 4 gusting 8 26.1
2016-Jun-25 12:17 122 4 gusting 10 26.7
2016-Jun-25 11:47 108 6 gusting 12 27.8
2016-Jun-25 11:37 134 6 gusting 10 28.9
2016-Jun-25 11:32 114 4 gusting 10 28.9
2016-Jun-25 11:27 117 3 gusting 7 28.9
2016-Jun-25 11:22 155 4 gusting 10 29.4
2016-Jun-25 11:07 184 0 gusting 6 27.8
2016-Jun-25 10:52 120 4 gusting 6 27.2
2016-Jun-25 10:32 159 2 gusting 7 27.2
2016-Jun-25 10:17 124 6 gusting 10 26.7
2016-Jun-25 10:12 120 4 gusting 7 26.7
2016-Jun-25 10:02 116 5 gusting 10 26.7
2016-Jun-25 09:52 149 5 gusting 7 26.7
2016-Jun-25 09:37 173 4 gusting 8 26.7
2016-Jun-25 09:32 141 5 gusting 6 26.7
2016-Jun-25 09:27 137 4 gusting 8 27.2
2016-Jun-25 09:22 117 2 gusting 6 27.2
2016-Jun-25 09:17 131 2 gusting 4 27.2
2016-Jun-25 09:07 144 3 gusting 6 26.7
2016-Jun-25 08:57 137 1 gusting 6 26.7
2016-Jun-25 08:52 145 4 gusting 6 26.7
2016-Jun-25 08:47 119 0 gusting 4 26.7
2016-Jun-25 08:32 138 2 gusting 4 26.1
2016-Jun-25 08:27 161 2 gusting 5 26.1
2016-Jun-25 08:22 100 1 gusting 6 26.1
2016-Jun-25 08:17 112 0 gusting 6 26.1
2016-Jun-25 08:12 099 1 gusting 5 26.1
2016-Jun-25 08:02 111 0 gusting 4 25.6
2016-Jun-25 07:57 105 1 gusting 4 26.1
2016-Jun-25 07:52 111 0 gusting 2 25.6
2016-Jun-25 07:42 109 1 gusting 2 25.6
2016-Jun-25 07:17 123 1 gusting 2 25.0
2016-Jun-25 07:12 123 24.4
2016-Jun-25 06:57 123 24.4
2016-Jun-25 06:52 123 0 gusting 2 23.9
2016-Jun-25 06:42 223 0 gusting 1 24.4
2016-Jun-25 06:37 223 24.4
2016-Jun-25 06:22 223 23.3
2016-Jun-25 06:02 223 22.2
2016-Jun-25 05:47 223 21.7
2016-Jun-25 05:37 223 21.1
2016-Jun-25 05:32 223 21.1
2016-Jun-25 05:27 223 21.1
2016-Jun-25 05:22 223 20.6
2016-Jun-25 05:17 223 20.6
2016-Jun-25 05:02 223 20.0
2016-Jun-25 04:52 223 20.0
2016-Jun-25 04:47 223 20.0
2016-Jun-25 04:42 223 20.0
2016-Jun-25 04:37 223 0 gusting 2 20.0
2016-Jun-25 04:32 223 20.0
2016-Jun-25 04:27 223 20.0
2016-Jun-25 04:22 223 20.0
2016-Jun-25 04:17 223 20.0
2016-Jun-25 03:42 223 20.6
2016-Jun-25 03:32 223 20.6
2016-Jun-25 03:12 223 20.6
2016-Jun-25 03:07 223 21.1
2016-Jun-25 03:02 223 21.1
2016-Jun-25 02:12 223 0 gusting 2 21.7
2016-Jun-25 01:37 019 21.7
2016-Jun-25 01:27 019 21.7
2016-Jun-25 01:22 019 21.7
2016-Jun-25 01:17 019 21.7
2016-Jun-25 01:07 019 0 gusting 2 21.7
2016-Jun-25 01:02 297 1 gusting 2 21.7
2016-Jun-25 00:27 315 22.2
2016-Jun-25 00:17 315 22.2
2016-Jun-25 00:07 315 22.2
2016-Jun-25 00:02 315 22.2
2016-Jun-24 23:57 315 22.2
2016-Jun-24 23:52 315 0 gusting 1 22.8
2016-Jun-24 23:42 315 22.8
2016-Jun-24 23:37 315 22.8
2016-Jun-24 23:32 315 22.8
2016-Jun-24 23:27 315 22.8
2016-Jun-24 23:22 315 22.8
2016-Jun-24 23:12 315 23.3
2016-Jun-24 23:07 315 23.3
2016-Jun-24 23:02 315 23.3
2016-Jun-24 22:52 315 23.3
2016-Jun-24 22:47 315 23.3
2016-Jun-24 22:32 315 0 gusting 1 23.9
2016-Jun-24 22:22 315 23.9
2016-Jun-24 22:12 316 1 gusting 2 23.9
2016-Jun-24 22:02 312 1 gusting 2 24.4
2016-Jun-24 21:57 312 1 gusting 2 24.4
2016-Jun-24 21:47 310 24.4
2016-Jun-24 21:37 310 0 gusting 1 24.4
2016-Jun-24 21:32 310 24.4
2016-Jun-24 21:17 309 23.9
2016-Jun-24 21:12 342 0 gusting 5 23.9
2016-Jun-24 20:57 245 2 gusting 5 23.3
2016-Jun-24 20:47 221 22.8
2016-Jun-24 20:37 220 22.8
2016-Jun-24 20:32 220 22.8
2016-Jun-24 20:22 220 22.8
2016-Jun-24 20:17 220 23.3
2016-Jun-24 20:07 220 23.3
2016-Jun-24 19:57 220 23.3
2016-Jun-24 19:47 220 23.9
2016-Jun-24 19:42 220 23.9
2016-Jun-24 19:37 220 23.9
2016-Jun-24 19:32 220 23.9
2016-Jun-24 19:12 192 0 gusting 2 24.4
2016-Jun-24 19:07 191 1 gusting 5 24.4
2016-Jun-24 19:02 189 0 gusting 4 24.4
2016-Jun-24 18:57 188 0 gusting 4 25.0
2016-Jun-24 18:47 188 0 gusting 2 25.0
2016-Jun-24 18:32 187 1 gusting 4 25.0
2016-Jun-24 18:27 186 2 gusting 6 25.0
2016-Jun-24 18:22 170 4 gusting 8 25.0
2016-Jun-24 18:17 205 4 gusting 8 25.6
2016-Jun-24 18:07 193 1 gusting 8 25.6
2016-Jun-24 17:57 195 5 gusting 10 25.6
2016-Jun-24 17:47 192 4 gusting 10 25.6
2016-Jun-24 17:42 180 6 gusting 10 25.6
2016-Jun-24 17:37 173 6 gusting 10 25.0
2016-Jun-24 17:32 182 6 gusting 13 25.0
2016-Jun-24 17:22 205 6 gusting 13 25.0
2016-Jun-24 17:02 187 7 gusting 14 24.4
2016-Jun-24 16:57 182 10 gusting 17 24.4
2016-Jun-24 16:52 192 4 gusting 13 25.0
2016-Jun-24 16:47 186 6 gusting 12 24.4
2016-Jun-24 16:32 200 7 gusting 17 24.4
2016-Jun-24 16:27 181 8 gusting 14 24.4
2016-Jun-24 16:22 169 6 gusting 13 24.4
2016-Jun-24 16:07 180 9 gusting 14 24.4
2016-Jun-24 15:57 186 6 gusting 15 25.0
2016-Jun-24 15:37 142 5 gusting 13 25.0
2016-Jun-24 15:32 183 4 gusting 12 25.0
2016-Jun-24 15:27 168 6 gusting 15 25.0
2016-Jun-24 15:17 188 5 gusting 14 25.6
2016-Jun-24 14:52 179 4 gusting 13 25.0
2016-Jun-24 14:47 182 8 gusting 12 25.0
2016-Jun-24 14:42 189 8 gusting 13 25.0
2016-Jun-24 14:37 217 5 gusting 13 25.0
2016-Jun-24 14:32 168 5 gusting 13 25.0
2016-Jun-24 14:22 151 6 gusting 14 25.0
2016-Jun-24 14:17 151 5 gusting 14 25.0
2016-Jun-24 14:07 191 5 gusting 13 25.6
2016-Jun-24 14:02 168 5 gusting 10 25.6
2016-Jun-24 13:57 191 5 gusting 12 25.0
2016-Jun-24 13:42 197 3 gusting 10 25.0
2016-Jun-24 13:37 156 5 gusting 11 25.0
2016-Jun-24 13:27 142 6 gusting 11 25.0
2016-Jun-24 13:22 147 5 gusting 10 25.6
2016-Jun-24 13:17 201 5 gusting 8 25.0
2016-Jun-24 13:12 176 5 gusting 12 25.0
2016-Jun-24 13:02 171 5 gusting 10 25.0
2016-Jun-24 12:57 189 5 gusting 10 25.0
2016-Jun-24 12:52 196 6 gusting 11 25.0
2016-Jun-24 12:47 156 6 gusting 13 25.0
2016-Jun-24 12:42 214 5 gusting 10 25.0
2016-Jun-24 12:32 166 5 gusting 13 25.0
2016-Jun-24 12:17 151 5 gusting 12 25.0
2016-Jun-24 12:07 147 4 gusting 11 25.6
2016-Jun-24 11:52 191 5 gusting 13 25.0
2016-Jun-24 11:47 150 5 gusting 11 25.0
2016-Jun-24 11:42 173 4 gusting 10 25.0
2016-Jun-24 11:32 184 6 gusting 14 25.0
2016-Jun-24 11:22 189 8 gusting 13 24.4
2016-Jun-24 11:17 187 7 gusting 13 24.4
2016-Jun-24 11:12 188 7 gusting 13 25.0
2016-Jun-24 10:57 190 6 gusting 18 25.0
2016-Jun-24 10:27 171 5 gusting 12 25.0
2016-Jun-24 10:22 170 6 gusting 12 25.0
2016-Jun-24 10:17 200 7 gusting 13 25.0
2016-Jun-24 10:12 200 8 gusting 15 25.0
2016-Jun-24 10:07 176 4 gusting 8 25.6
2016-Jun-24 09:57 211 6 gusting 12 25.0
2016-Jun-24 09:47 190 5 gusting 11 25.0
2016-Jun-24 09:42 182 6 gusting 12 25.0
2016-Jun-24 09:22 160 5 gusting 13 25.0
2016-Jun-24 09:17 194 7 gusting 13 25.0
2016-Jun-24 09:12 199 6 gusting 10 25.6
2016-Jun-24 08:57 166 5 gusting 10 25.6
2016-Jun-24 08:52 151 4 gusting 7 25.6
2016-Jun-24 08:47 181 5 gusting 11 25.6
2016-Jun-24 08:27 183 5 gusting 10 25.0
2016-Jun-24 08:22 157 2 gusting 7 25.0
2016-Jun-24 08:17 156 2 gusting 10 25.0
2016-Jun-24 08:12 135 3 gusting 6 25.0
2016-Jun-24 08:07 138 2 gusting 6 25.0
2016-Jun-24 08:02 130 0 gusting 6 25.0
2016-Jun-24 07:52 135 0 gusting 4 24.4
2016-Jun-24 07:47 122 1 gusting 7 24.4
2016-Jun-24 07:42 080 0 gusting 4 24.4
2016-Jun-24 07:37 094 2 gusting 6 23.9
2016-Jun-24 07:22 144 0 gusting 2 23.9
2016-Jun-24 07:17 173 0 gusting 1 23.9
2016-Jun-24 07:12 173 0 gusting 1 23.9
2016-Jun-24 07:07 173 0 gusting 2 23.3
2016-Jun-24 06:57 173 23.3
2016-Jun-24 06:52 173 23.3
2016-Jun-24 06:47 173 0 gusting 1 22.8
2016-Jun-24 06:42 173 0 gusting 1 22.8
2016-Jun-24 06:27 173 22.8
2016-Jun-24 06:12 173 22.8
2016-Jun-24 06:07 173 22.2
2016-Jun-24 05:52 173 22.2
2016-Jun-24 05:47 173 22.2
2016-Jun-24 05:42 173 21.7
2016-Jun-24 05:37 173 21.1
2016-Jun-24 05:22 173 20.0
2016-Jun-24 05:07 173 18.9
2016-Jun-24 05:02 173 18.9
2016-Jun-24 04:57 173 18.9
2016-Jun-24 04:47 172 18.3
2016-Jun-24 04:32 173 18.3
2016-Jun-24 04:22 173 18.3
2016-Jun-24 04:17 173 18.3
2016-Jun-24 04:12 173 18.3
2016-Jun-24 03:52 173 18.9
2016-Jun-24 03:42 173 18.9
2016-Jun-24 03:37 173 18.9
2016-Jun-24 03:32 173 18.9
2016-Jun-24 03:27 173 18.9
2016-Jun-24 03:22 173 18.9
2016-Jun-24 03:17 173 18.9
2016-Jun-24 03:12 173 18.9
2016-Jun-24 03:02 173 19.4
2016-Jun-24 02:42 173 19.4
2016-Jun-24 02:27 173 19.4
2016-Jun-24 02:07 173 20.0
2016-Jun-24 02:02 173 20.0
2016-Jun-24 01:52 173 20.0
2016-Jun-24 01:47 173 20.0
2016-Jun-24 01:32 173 20.0
2016-Jun-24 01:22 173 20.6
2016-Jun-24 01:07 173 20.6
2016-Jun-24 00:52 173 21.1
2016-Jun-24 00:42 173 0 gusting 1 20.6
2016-Jun-24 00:37 173 20.6
2016-Jun-24 00:32 173 20.6
2016-Jun-24 00:27 173 20.6
2016-Jun-24 00:12 173 20.6
2016-Jun-24 00:07 173 20.6
2016-Jun-24 00:02 173 20.6
2016-Jun-23 23:57 173 20.6
2016-Jun-23 23:42 173 21.1
2016-Jun-23 23:37 173 21.1
2016-Jun-23 23:27 173 21.1
2016-Jun-23 23:12 173 21.1